Location: Riverside Cemetery
(38.3047°N, 99.7773°W)
Time: 18:08:15
(UTC+00:00)

Cosmos 2263 Rocket - Pass Details

Date: 19 September 2020
Orbit: 822 x 849 km, 71.0° (Epoch: 21 October)

Event Time Altitude Azimuth Distance (km) Brightness Sun altitude
Rises 02:16:06 0° 235° (SW) 3,345 5.9 -19.1°
Reaches altitude 10° 02:18:55 10° 248° (WSW) 2,418 5.3 -19.6°
Maximum altitude 02:23:27 25° 303° (WNW) 1,597 4.4 -20.5°
Drops below altitude 10° 02:28:02 10° 359° (N) 2,439 4.8 -21.3°
Sets 02:30:55 0° 12° (NNE) 3,380 5.4 -21.8°
